Location: Aldenham
(51.6667°N, 0.3500°W)
Time: 07:59:05
(UTC+00:00)

Explorer 7 - Pass Details

Date: 22 February 2026
Orbit: 430 x 541 km, 50.2° (Epoch: 12 March)

Event Time Altitude Azimuth Distance (km) Brightness Sun altitude
Rises 16:23:16 0° 269° (W) 2,448 11.4 8.6°
Reaches altitude 10° 16:25:22 10° 267° (W) 1,592 10.6 8.3°
Maximum altitude 16:28:56 71° 184° (S) 496 6.9 7.8°
Drops below altitude 10° 16:32:40 10° 100° (E) 1,655 8.8 7.3°
Sets 16:34:53 0° 98° (E) 2,557 9.7 7.0°
